Lancaster, PA

1:56 PM EDT on October 17, 2017 (GMT -0400)
Lancaster

Weather History for KLNS - December, 2014

Change the Weather History Date:

Friday, December 26, 2014

  Actual Average Record
Temperature  
Mean Temperature 37 °F -  
Max Temperature 46 °F 36 °F 61 °F (1982)
Min Temperature 28 °F 20 °F -3 °F (1980)
Degree Days  
Heating Degree Days 28    
Moisture  
Dew Point 28 °F    
Average Humidity 73    
Maximum Humidity 89    
Minimum Humidity 50    
Precipitation  
Precipitation 0.00 in - - ()
Sea Level Pressure  
Sea Level Pressure 30.25 in    
Wind  
Wind Speed 4 mph (West)    
Max Wind Speed 9 mph    
Max Gust Speed -    
Visibility 9 miles    
Events      
Averages and records for this station are not official NWS values.
T = Trace of Precipitation, MM = Missing Value Source: NWS Daily Summary

Daily Weather History Graph

Daily Weather History Graph

Search for Another Location

Airport or City:

Trip Planner

Search our weather history database for the weather conditions in past years. The results will help you decide how hot, cold, wet, or windy it might be!

Date:

Astronomy

Dec. 26, 2014 Rise Set
Actual Time 7:26 AM EST 4:45 PM EST
Civil Twilight 6:55 AM EST 5:16 PM EST
Nautical Twilight 6:21 AM EST 5:50 PM EST
Astronomical Twilight 5:48 AM EST 6:23 PM EST
Moon 10:36 AM EST (12/26) 10:25 PM EST (12/26)
Length of Visible Light 10h 20m
Length of Day
9h 19m
Waxing Crescent, 27% of the Moon is Illuminated
Dec 26
Waxing Crescent
Dec 28
First Quarter
Jan 4
Full
Jan 13
Last Quarter
Jan 20
New

Hourly Weather History & Observations

Time (EST) Temp. Windchill Dew Point Humidity Pressure Visibility Wind Dir Wind Speed Gust Speed Precip Events Conditions
12:53 AM 33.1 °F 27.7 °F 27.0 °F 78% 30.19 in 10.0 mi West 5.8 mph - N/A   Clear
1:53 AM 32.0 °F - 26.1 °F 79% 30.21 in 10.0 mi Calm Calm - N/A   Clear
2:53 AM 35.1 °F 32.2 °F 27.0 °F 72% 30.19 in 10.0 mi WSW 3.5 mph - N/A   Clear
3:53 AM 32.0 °F - 27.0 °F 82% 30.22 in 10.0 mi Calm Calm - N/A   Clear
4:53 AM 32.0 °F 28.7 °F 27.0 °F 82% 30.24 in 10.0 mi West 3.5 mph - N/A   Clear
5:53 AM 28.9 °F 25.2 °F 25.0 °F 85% 30.26 in 6.0 mi WNW 3.5 mph - N/A   Clear
6:53 AM 30.0 °F 26.5 °F 26.1 °F 85% 30.28 in 9.0 mi WSW 3.5 mph - N/A   Clear
7:53 AM 28.9 °F 23.9 °F 25.0 °F 85% 30.30 in 9.0 mi West 4.6 mph - N/A   Clear
8:53 AM 33.1 °F 28.7 °F 28.9 °F 85% 30.30 in 10.0 mi West 4.6 mph - N/A   Clear
9:53 AM 37.9 °F 32.1 °F 30.0 °F 73% 30.33 in 10.0 mi WNW 8.1 mph - N/A   Clear
10:53 AM 42.1 °F 37.1 °F 30.9 °F 65% 30.32 in 10.0 mi West 8.1 mph - N/A   Clear
11:53 AM 44.1 °F 39.5 °F 30.9 °F 60% 30.28 in 10.0 mi WNW 8.1 mph - N/A   Clear
12:53 PM 45.0 °F 40.1 °F 30.9 °F 58% 30.26 in 10.0 mi West 9.2 mph - N/A   Clear
1:53 PM 46.0 °F 41.9 °F 30.0 °F 54% 30.24 in 10.0 mi WNW 8.1 mph - N/A   Clear
2:53 PM 46.9 °F - 28.9 °F 50% 30.22 in 10.0 mi West 8.1 mph - N/A   Clear
3:53 PM 46.0 °F 43.9 °F 30.0 °F 54% 30.23 in 10.0 mi SSW 4.6 mph - N/A   Clear
4:53 PM 45.0 °F - 28.9 °F 53% 30.23 in 10.0 mi Calm Calm - N/A   Clear
5:53 PM 39.0 °F - 28.9 °F 67% 30.25 in 10.0 mi Calm Calm - N/A   Clear
6:53 PM 35.1 °F - 28.0 °F 76% 30.26 in 10.0 mi Calm Calm - N/A   Clear
7:53 PM 36.0 °F - 28.9 °F 76% 30.27 in 10.0 mi Calm Calm - N/A   Clear
8:53 PM 36.0 °F - 28.9 °F 76% 30.27 in 9.0 mi Calm Calm - N/A   Clear
9:53 PM 33.1 °F - 28.0 °F 82% 30.26 in 7.0 mi Calm Calm - N/A   Clear
10:53 PM 32.0 °F - 28.0 °F 85% 30.25 in 6.0 mi Calm Calm - N/A   Clear
11:53 PM 30.9 °F - 28.0 °F 89% 30.24 in 6.0 mi Calm Calm - N/A   Clear